Погода в Михайловке

Россия / Астраханская область     45°55′27″N   47°07′07″E
темп.,
°C
ветер,
м/с
пор.,
м/с
влажн.,
%
обл.,
%
осадки,
мм/ч
давл.,
гПа
погр.,
м
13 апреля, вт
вт1301:00+13в51149100 0.0 1023228
04:00+13вюв496077 0.0 1024188
07:00+12в47700 0.0 1024123
10:00+19в811270 0.0 1024689
13:00+22вюв1011180 0.0 10231436
16:00+22вюв9101814 0.0 10221426
19:00+18вюв61022100 0.0 1022594
22:00+15в51237100 0.0 1022339
14 апреля, ср
ср1401:00+13всв5124032 0.0 1019223
04:00+12в512494 0.0 1018206
07:00+12в612515 0.0 1017229
10:00+20юв811285 0.0 1017740
13:00+22юв8102499 0.0 10161137
16:00+21юв8926100 0.0 1016969
19:00+18ююв71032100 0.0 1016594
22:00+16юв3437100 0.0 1016108
15 апреля, чт
чт1501:00+14зсз4656100 0.0 1014164
04:00+14ююз2257100 0.0 101557
07:00+14ссз71252100 0.1 1013357
10:00+18св443791 0.2 1012843
13:00+20ссв663195 0.0 10121672
16:00+22с672845 0.0 10112359
19:00+20ссз69317 0.0 1011602
22:00+16зсз5104239 0.0 1012204
16 апреля, пт
пт1601:00+15зсз8145625 0.0 1012373
04:00+14сз714665 0.0 1013322
07:00+13зсз713655 0.0 1013349
10:00+19сз89445 0.0 1014773
13:00+22сз66324 0.0 10142110
16:00+24зсз552881 0.0 10132794
19:00+22сз353276 0.0 1013148
22:00+18сз33415 0.0 101439
17 апреля, сб
сб1701:00+16ссз345071 0.0 101550
04:00+15с3454100 0.0 101544
07:00+15с335799 0.0 101649
10:00+19ссз4545100 0.0 1017585
13:00+18з9857100 0.5 1018942
16:00+15сз101173100 2.1 1019671
19:00+14зсз6873100 0.2 1019899
22:00+12сз4974100 0.2 1019315